Regional Weather Roundup
Issued by NWS

Home | Current Version | Previous Version | Graphics & Text | Print | Product List | Glossary On
Versions: 1 2 3 4 5 6 7 8 9 10 11 12 13 14 15 16 17 18 19 20 21 22 23 24 25 26 27 28 29 30 31 32 33 34 35 36 37 38 39 40 41 42 43 44 45 46 47 48 49 50
000
ASUS43 KLSX 270107
RWRMO

WEATHER SUMMARY FOR MISSOURI
NATIONAL WEATHER SERVICE SPRINGFIELD MO
800 PM CDT SUN MAR 26 2017

NOTE: "FAIR" INDICATES FEW OR NO CLOUDS BELOW 12,000 FEET WITH NO
       SIGNIFICANT WEATHER AND/OR OBSTRUCTIONS TO VISIBILITY.
       CURRENT SKY AND/OR WEATHER CONDITIONS ARE NOT AVAILABLE FOR
       CHILLICOTHE AND FARMINGTON.

MOZ001>031-035>038-043-044-053-054-270200-
...NORTHERN AND WESTERN MISSOURI...

CITY           SKY/WX    TMP DP  RH WIND       PRES   REMARKS
KANSAS CTY INT CLOUDY    50  45  83 N5        29.94R
KANSAS C DTWN  CLOUDY    52  45  77 NW3       29.93R
LEE`S SUMMIT   CLOUDY    52  46  80 CALM      29.93S
ST JOSEPH      CLOUDY    48  44  86 NW3       29.96R
CHILLICOTHE      N/A     50  44  80 CALM      29.94S
KIRKSVILLE     CLOUDY    49  44  83 SW3       29.94R

$$
MOZ066>068-077>081-088>096-101>105-270200-
...SOUTHWEST MISSOURI...

CITY           SKY/WX    TMP DP  RH WIND       PRES   REMARKS
SPRINGFIELD    MOCLDY    63  49  60 E8        29.84F
JOPLIN         MOCLDY    63  51  65 N7        29.82R
BRANSON        CLOUDY    63  50  63 SE7       29.86F

$$
MOZ032>034-039>042-045>050-055>058-069>072-270200-
...CENTRAL MISSOURI...

CITY           SKY/WX    TMP DP  RH WIND       PRES   REMARKS
COLUMBIA       PTCLDY    55  48  77 N3        29.92S
JEFFERSON CITY PTCLDY    59  48  67 N5        29.92S
ROLLA          PTCLDY    57  50  77 NE5       29.91R
SEDALIA        CLOUDY    55  49  80 CALM      29.93R
WHITEMAN AFB   CLOUDY    53  53 100 CALM      29.91R
WARRENSBURG    CLOUDY    52  45  76 CALM      29.92R
OSAGE BEACH    CLOUDY   N/A N/A N/A CALM      29.92R

$$
MOZ051-052-059>065-270200-
...EAST CENTRAL MISSOURI...

CITY           SKY/WX    TMP DP  RH WIND       PRES   REMARKS
ST LOUIS INTL  CLOUDY    58  49  72 N6        29.94R
SPIRIT OF STL  CLOUDY    55  51  86 CALM      29.92R
ST CHARLES     PTCLDY    55  51  86 CALM      29.93R

$$
MOZ072>076-082>087-097>100-106>115-270200-
...SOUTH CENTRAL AND SOUTHEAST MISSOURI...

CITY           SKY/WX    TMP DP  RH WIND       PRES   REMARKS
CAPE GIRARDEAU MOCLDY    58  49  72 SE3       29.95S
FARMINGTON     CLOUDY    58  48  69 S5        29.95R
POPLAR BLUFF   PTCLDY    60  53  77 E3        29.94S
WEST PLAINS    CLOUDY    60  49  66 E5        29.90F

$$



USA.gov is the U.S. government's official web portal to all federal, state and local government web resources and services.